This is the latest recevied weather packets stored in our database for station/object KY0TEQ-13. If no packets are shown the sender has not sent any weather packets the latest 10 day(s).
| Time | Temp. | Humidity | Pressure | Rain* | Wind** | Luminosity | Snow |
|---|---|---|---|---|---|---|---|
| 1777003948 | 6.11° C | 28% | 1299.5 hPa | 0 mm | - | 0 W/m² | - |
| 1777003645 | 6.67° C | 28% | 1299.3 hPa | 0 mm | - | 0 W/m² | - |
| 1777003342 | 6.67° C | 28% | 1299.6 hPa | 0 mm | - | 0 W/m² | - |
| 1777003039 | 7.22° C | 27% | 1299.5 hPa | 0 mm | - | 0 W/m² | - |
| 1777002736 | 7.78° C | 26% | 1299.4 hPa | 0 mm | - | 0 W/m² | - |
| 1777002431 | 7.78° C | 26% | 1299.4 hPa | 0 mm | - | 0 W/m² | - |
| 1777002129 | 7.22° C | 27% | 1299.4 hPa | 0 mm | - | 0 W/m² | - |
| 1777001824 | 7.22° C | 27% | 1299.3 hPa | 0 mm | - | 0 W/m² | - |
| 1777001523 | 7.22° C | 27% | 1299.3 hPa | 0 mm | - | 0 W/m² | - |
| 1777001218 | 7.78° C | 27% | 1299.2 hPa | 0 mm | - | 0 W/m² | - |
| 1777000914 | 7.78° C | 27% | 1298.8 hPa | 0 mm | - | 0 W/m² | - |
| 1777000610 | 7.78° C | 27% | 1299 hPa | 0 mm | - | 0 W/m² | - |
| 1777000307 | 8.89° C | 25% | 1299 hPa | 0 mm | - | 0 W/m² | - |
| 1777000003 | 8.89° C | 25% | 1298.8 hPa | 0 mm | - | 0 W/m² | - |
| 1776999699 | 8.89° C | 25% | 1298.8 hPa | 0 mm | - | 0 W/m² | - |
| 1776999395 | 8.89° C | 24% | 1298.8 hPa | 0 mm | - | 0 W/m² | - |
| 1776999092 | 9.44° C | 23% | 1298.5 hPa | 0 mm | - | 0 W/m² | - |
| 1776998789 | 8.89° C | 23% | 1298.5 hPa | 0 mm | - | 0 W/m² | - |
| 1776998485 | 8.89° C | 24% | 1298.4 hPa | 0 mm | - | 0 W/m² | - |
| 1776998182 | 9.44° C | 23% | 1298.5 hPa | 0 mm | - | 0 W/m² | - |
| 1776997877 | 9.44° C | 23% | 1298.3 hPa | 0 mm | - | 0 W/m² | - |
| 1776997573 | 9.44° C | 23% | 1298.3 hPa | 0 mm | - | 0 W/m² | - |
* Rain latest hour (hover to see other rain measurements)
** Current wind speed in m/s (hover to see current wind gust speed)